Regional Weather Roundup
Issued by NWS Goodland, KS

Home | Current Version | Previous Version | Graphics & Text | Print | Product List | Glossary On
Versions: 1 2 3 4 5 6 7 8 9 10 11 12 13 14 15 16 17 18 19 20 21 22 23 24 25 26 27 28 29 30 31 32 33 34 35 36 37 38 39 40 41 42 43 44 45 46 47 48 49 50
000
ASUS43 KGLD 210908
RWRGLD

GOODLAND FORECAST AREA HOURLY WEATHER ROUNDUP
NATIONAL WEATHER SERVICE GOODLAND KS
300 AM MDT THU AUG 21 2014

...OFFICIAL OBSERVATIONS...

CITY           SKY/WX    TMP DP  RH WIND       PRES   REMARKS
GOODLAND KS    CLEAR     64  59  83 NW9       29.88F
HILL CITY KS   CLOUDY    83  61  47 S16G26    29.77S
IMPERIAL NEB   PTCLDY    69  60  73 NW5       29.88R
MCCOOK NEB     PTCLDY    70  64  81 E8        29.79F
AKRON CO       CLOUDY    64  58  80 NW6       29.98F
BURLINGTON CO  CLEAR     65  55  70 NW9       29.93R
LIMON CO       MOCLDY    60  57  89 NW6       30.01F
$$

...UNOFFICIAL OBSERVATIONS...

CITY           SKY/WX    TMP DP  RH WIND       PRES   REMARKS
COLBY KS       CLEAR     66  66 100 SW6       29.85R
LENORA KS        N/A     80  32  17 CALM        N/A
NORTON KS      CLEAR     79  59  50 S6        29.78
SHARON SPRINGS   N/A     67  59  75 CALM        N/A
WAKEENEY KS      N/A     81  56  42 MISG        N/A
KIT CARSON CO    N/A     68  56  64 MISG        N/A
YUMA CO          N/A     65  60  82 CALM        N/A
$$


USA.gov is the U.S. government's official web portal to all federal, state and local government web resources and services.